User: anonymous   Login
Location: Unspecified
(0.0000°N, 0.0000°E)
Time: 02:37:40
(UTC+01:00)
Language:

GPS 2-05 Rocket1 - Orbit

View from above orbital plane
View from above orbital plane
View from above satellite
View from above satellite

Ground track
Ground track

The orbit data is extracted from the following two-line orbital elements,

1 20362U 89097B   14327.52883994  .00022724  00000-0  73218-3 0  5730
2 20362 035.6214 126.6052 0101506 078.7916 330.4090 15.26377634355218
Epoch (UTC): 23 November 2014 12:41:31
Eccentricity: 0.0101506
inclination: 35.6214°
perigee height: 417 km
apogee height: 556 km
right ascension of ascending node: 126.6052°
argument of perigee: 78.7916°
revolutions per day: 15.26377634
mean anomaly at epoch: 330.4090°
orbit number at epoch: 35521

The dashed part of the orbit path shows where the satellite is in the earth's shadow,  

DLR